DELTA 1 DEB, 5971

Orbit data source: Space-Track

DELTA 1 DEB, 5971 is space debris in SSO originally from a launch on Thu, 26 Jan 1967 UTC launched from the Air Force Western Test Range (AFWTR). Debris objects in space refer to the collection of defunct objects orbiting the Earth. Examples of debris include non-operational satellites, rocket bodies, and fragments generated from explosions, collisions, or faulty payload assembly.

Loading next visibility...
Identifier
5971, 1967-006E
Orbit
SSO
Country
Flag of USUS
Related business
Manufacturer
Unknown
Mission
Spacecraft
Bus & Motor
Unknown
Mass
Unknown
Launch date (UTC)
1967-01-26 (59 years ago)
Launch vehicle
Unknown
Launch site
Air Force Western Test Range (AFWTR)
Object type
Payload
Rocket body
Debris
Shape & HBR
Unknown shape, 0.1 m
Radar Cross Section
Small (<0.1 m²)

Expand to show TLE details & history
Last TLE update: 22 hours ago

TLE from 22 hours ago
0 DELTA 1 DEB
1 05971U 67006E   26071.80575689 -.00000018  00000-0  14161-3 0  9991
2 05971 101.9422  11.7984 0112882 161.5496 225.3034 12.73481541748821
Epoch: 2026-03-12T19:20Z
TLE epoch observation values (Epoch: 2026-03-12T19:20:17.395Z)
Latitude
25.3711°
Longitude
-94.45237°
Altitude
1,432.586 km
Speed
7.119 km/s
True Right ascension
00h 24m 16s
True Declination
25° 14' 59"
Sunlit
Object was in daylight at epoch
Visualization orbit readout
Latitude
Unknown
Longitude
Unknown
Altitude
Unknown
Speed
Unknown
Apparent Right ascension
Unknown
Apparent Declination
Unknown
Sunlit
N/A
Visualization observer readout
Local Sidereal Time
21:42:25
Azimuth
Unknown
Elevation
Unknown
Doppler factor
Unknown
Orbital elements
Apogee altitude
1,452.727 km
Perigee altitude
1,277.908 km
Semi-major axis
7,743.454 km
Eccentricity
0.01129
Inclination
101.9422°
RAAN
11.7984°
Arg. of periapsis
161.5496°
True anomaly
224.39298°
Mean anomaly
225.3034°
Eccentric anomaly
224.84729°
Mean motion
3.18523 °/min
Orbital period
113.02 mins
BSTAR
0.00014161
Loading maneuver chart data...
Computing Atmospheric mass density...
Loading historical data...
Loading historical data...
Loading historical data...
Loading historical data...
Loading historical data...
Loading historical data...
Loading historical data...
Other satellites on launch #6 in the year 1967 (1967-01-26 UTC)

Documentation

Showing up to 5 results
|